Regional Weather Roundup
Issued by NWS

Home | Current Version | Previous Version | Graphics & Text | Print | Product List | Glossary On
Versions: 1 2 3 4 5 6 7 8 9 10 11 12 13 14 15 16 17 18 19 20 21 22 23 24 25 26 27 28 29 30 31 32 33 34 35 36 37 38 39 40 41 42 43 44 45 46 47 48 49 50
000
ASUS43 KLOT 011806
RWRIL

ILLINOIS REGIONAL WEATHER ROUNDUP
NATIONAL WEATHER SERVICE CHICAGO/ROMEOVILLE IL
1200 PM CST SUN MAR 01 2015

NOTE: "FAIR" INDICATES FEW OR NO CLOUDS BELOW 12,000 FEET WITH NO
SIGNIFICANT WEATHER AND/OR OBSTRUCTIONS TO VISIBILITY.

* THESE STATIONS ARE NOT UNDER NWS QUALITY CONTROL. THEY ALSO MAY NOT
  REPORT WEATHER SUCH AS PRECIPITATION OR FOG.

ILZ001-002-007-009-015-016-024-011900-
NORTHWEST ILLINOIS

CITY           SKY/WX    TMP DP  RH WIND       PRES   REMARKS
MOLINE         CLOUDY    25  15  66 W8        30.38S WCI  16
6HR MIN TEMP:  11; 6HR MAX TEMP:  25;

STERLING*      MOSUNNY   23  18  80 W6        30.38S WCI  16
SAVANNA*       CLOUDY    24  15  70 W7        30.37F WCI  16
$$

ILZ003-004-008-010-011-017-018-011900-
NORTH CENTRAL ILLINOIS

CITY           SKY/WX    TMP DP  RH WIND       PRES   REMARKS
ROCKFORD       PTSUNNY   23  13  65 NW8       30.36F WCI  14
6HR MIN TEMP:  14; 6HR MAX TEMP:  24; 6HR PCP: TRACE;

FREEPORT*      MOSUNNY   19  16  86 SW8       30.36F WCI   9
ROCHELLE*      PTSUNNY   19  18  94 W6        30.36F WCI  11
DE KALB*       PTSUNNY   19  17  90 W7        30.34F WCI  10
PERU*          CLOUDY    24  18  78 CALM      30.38R
$$

ILZ005-006-012>014-019>023-011900-
NORTHEAST ILLINOIS

CITY           SKY/WX    TMP DP  RH WIND       PRES   REMARKS
CHICAGO-OHARE  CLOUDY    21  16  81 W7        30.34F HAZE    WCI  12
6HR MIN TEMP:  12; 6HR MAX TEMP:  21; 6HR PCP: TRACE;

CHICAGO-MIDWAY LGT SNOW  24  21  88 CALM      30.35F FOG
6HR MIN TEMP:  19; 6HR MAX TEMP:  24; 6HR PCP:  0.01;

AURORA         MOSUNNY   22  15  75 W7        30.36S WCI  13
6HR MIN TEMP:   7; 6HR MAX TEMP:  22;

LANSING*       LGT SNOW  23  19  86 CALM      30.36S
JOLIET*        LGT SNOW  22  17  81 W5        30.36F WCI  16
WAUKEGAN       PTSUNNY   22  15  75 VRB5      30.32F WCI  16
6HR MIN TEMP:  12; 6HR MAX TEMP:  23;

DUPAGE AIRPORT CLOUDY    22  15  75 W5        30.34F WCI  16
6HR MIN TEMP:  11; 6HR MAX TEMP:  22;

KANKAKEE*      LGT SNOW  24  20  85 W7        30.37S WCI  16
WHEELING       CLOUDY    22  15  75 W6        30.36F WCI  14
6HR MIN TEMP:  12; 6HR MAX TEMP:  22;

MORRIS*        LGT SNOW  22  19  89 W7        30.36S WCI  13
ROMEOVILLE*    RAIN      22  18  83 W6        30.35F WCI  15
NORTHERLY ISL    N/A     25  18  74 W2          N/A
$$

LMZ740>746-011900-
SOUTHERN LAKE MICHIGAN

STATION/POSITION SKY/WX   TEMP    WIND        PRES    VSBY  WAVE
                          AIR SEA DIR/SP/G                  HT/PER
                          (F)     (DEG/KT/KT) (MB)    (MI)  (FT/S)
WAUKEGAN HARBOR            22     240/  7/ 12   N/A
HARRISON CRIB              22     210/  5/  7   N/A
BURNHAM HARBOR             25     270/  3/  5   N/A
CALUMET HARBOR             23     200/  4/  5 1026.3F
MICHIGAN CITY              21     180/  3/  4   N/A
$$

ILZ025>027-034>036-040-047-049-050-058-095>099-011900-
WEST-CENTRAL ILLINOIS

CITY           SKY/WX    TMP DP  RH WIND       PRES   REMARKS
QUINCY         CLOUDY    25  19  78 NW6       30.39S WCI  18
GALESBURG*     CLOUDY    23  19  81 W6        30.38S WCI  16
MACOMB*        CLOUDY    24  19  83 N3        30.41F
JACKSONVILLE*  CLOUDY    28  24  83 NW5       30.39S WCI  23
PITTSFIELD*    CLOUDY    28  22  79 NW5       30.40R WCI  22
$$

ILZ028>032-037-038-041>044-048-051>054-059>061-011900-
CENTRAL ILLINOIS

CITY           SKY/WX    TMP DP  RH WIND       PRES   REMARKS
PONTIAC        LGT SNOW  24  20  85 NW5       30.37F WCI  18
BLOOMINGTON    PTSUNNY   26  20  78 N6        30.36S WCI  19
DECATUR        LGT SNOW  26  24  92 CALM      30.36S VSB 1
PEORIA         CLOUDY    28  20  71 W3        30.38S
6HR MIN TEMP:  22; 6HR MAX TEMP:  29; 6HR PCP:  0.16;

LACON*         LGT SNOW  23  18  80 NW5       30.38S WCI  17
LINCOLN*       CLOUDY    28  23  79 N5        30.39S WCI  23
SPRINGFIELD    CLOUDY    27  21  78 N8        30.38S WCI  19
6HR MIN TEMP:  23; 6HR MAX TEMP:  28; 6HR PCP:  0.07;

TAYLORVILLE    LGT SNOW  27  23  86 N6        30.37S VSB 1   WCI  20
$$

ILZ033-039-045-046-055>057-062-063-011900-
EAST-CENTRAL ILLINOIS

CITY           SKY/WX    TMP DP  RH WIND       PRES   REMARKS
CHAMPAIGN      LGT SNOW  26  22  84 CALM      30.34F VSB 3/4
DANVILLE*      LGT SNOW  25  22  89 N5        30.32F VSB 1   WCI  19
RANTOUL*       LGT SNOW  27  23  86 CALM      30.35S VSB 1
MATTOON        LGT SNOW  29  25  85 N5        30.32F VSB 1   WCI  24
PARIS*         LGT SNOW  28  26  91 NW3       30.35F
$$

ILZ079-100>102-011900-
SOUTHWEST ILLINOIS

CITY           SKY/WX    TMP DP  RH WIND       PRES   REMARKS
BELLEVILLE     CLOUDY    31  30  99 NW5       30.36F WCI  26
CAHOKIA*       CLOUDY    31  28  89 NW6       30.38F FOG     WCI  25
SPARTA*        CLOUDY    31  29  93 NW5       30.38S WCI  26
$$

ILZ064>066-069>071-074>076-080>082-084>086-088>090-092>094-011900-
SOUTH-CENTRAL ILLINOIS

CITY           SKY/WX    TMP DP  RH WIND       PRES   REMARKS
CARBONDALE     CLOUDY    32  29  88 NW5       30.38S FOG     WCI  27
6HR MIN TEMP:  31; 6HR MAX TEMP:  32; 6HR PCP:  0.01;

CAIRO*         CLOUDY    39  32  76 W7        30.38R WCI  34
EFFINGHAM*     CLOUDY    31  27  85 W6        30.36F FOG     WCI  25
MARION         CLOUDY    34  32  93 NW6       30.39R FOG     WCI  29
MT. VERNON     CLOUDY    32  28  86 W3        30.37F
CENTRALIA*     CLOUDY    30  28  90 W6        30.36F FOG     WCI  24
SALEM*         CLOUDY    32  29  90 W7        30.36F FOG     WCI  26
METROPOLIS*    CLOUDY    38  32  78 NW6       30.36R WCI  34
$$

ILZ067-068-072-073-078-083-087-091-011900-
SOUTHEAST ILLINOIS

CITY           SKY/WX    TMP DP  RH WIND       PRES   REMARKS
LAWRENCEVILLE  FOG       34  32  92 CALM      30.36F VSB 3/4
FLORA*           N/A     31  30  97 CALM      30.36F FOG
FAIRFIELD*     CLOUDY    32  31  96 N3        30.35F FOG
HARRISBURG*    CLOUDY    34  33  93 W7        30.39R FOG     WCI  28
ROBINSON*      CLOUDY    32  31  96 CALM      30.36F FOG
CARMI*         CLOUDY    35  33  93 NW6       30.36F WCI  30
$$

ABBREVIATIONS USED IN REMARKS
   TC - TEMPERATURE IN CELSIUS
  WCI - WIND CHILL INDEX
   HX - HEAT INDEX
  VSB - VISIBILITY
$$



USA.gov is the U.S. government's official web portal to all federal, state and local government web resources and services.